Regional Weather Roundup
Issued by NWS

Home | Current Version | Previous Version | Graphics & Text | Print | Product List | Glossary On
Versions: 1 2 3 4 5 6 7 8 9 10 11 12 13 14 15 16 17 18 19 20 21 22 23 24 25 26 27 28 29 30 31 32 33 34 35 36 37 38 39 40 41 42 43 44 45 46 47 48 49 50
000
ASUS43 KLMK 031210
RWRKY
KENTUCKY REGIONAL WEATHER ROUNDUP
NATIONAL WEATHER SERVICE LOUISVILLE KY
800 AM EDT SUN MAY 03 2015

NOTE "FAIR" INDICATES FEW OR NO CLOUDS BELOW 12,000 FEET
WITH NO SIGNIFICANT WEATHER AND/OR OBSTRUCTIONS TO VISIBILITY.

KYZ001>023-026-027-061>063-070>075-031300-
WESTERN AND SOUTH CENTRAL KENTUCKY

CITY           SKY/WX    TMP DP  RH WIND       PRES   REMARKS
PADUCAH        PTSUNNY   58  47  66 S3        30.07R
HENDERSON      CLOUDY    55  50  82 CALM      30.08R
OWENSBORO      PTSUNNY   56  50  80 CALM      30.11R
HOPKINSVILLE   SUNNY     53  50  90 E2        30.10R
BOWLING GREEN  MOSUNNY   50  46  86 CALM      30.13R
GLASGOW        SUNNY     48  48 100 CALM      30.13R
$$

KYZ024-025-028>034-038-045-046-053-031300-
NORTH CENTRAL KENTUCKY

CITY           SKY/WX    TMP DP  RH WIND       PRES   REMARKS
LOUISVILLE/SDF PTSUNNY   54  49  83 CALM      30.12R
LOUISVILLE/LOU PTSUNNY   54  48  80 CALM      30.13R
FORT KNOX      PTSUNNY   49  47  92 CALM      30.11R
$$

KYZ035>037-039>044-047>052-055>060-089>105-031300-
NORTHEAST KENTUCKY

CITY           SKY/WX    TMP DP  RH WIND       PRES   REMARKS
LEXINGTON      PTSUNNY   53  46  77 SE6       30.14R
COVINGTON      PTSUNNY   53  49  86 CALM      30.12R
FRANKFORT      PTSUNNY   51  47  86 CALM      30.13R
$$

KYZ054-064>069-076>088-106>120-031300-
SOUTHEAST KENTUCKY

CITY           SKY/WX    TMP DP  RH WIND       PRES   REMARKS
JACKSON        MOSUNNY   53  42  66 CALM      30.16R
LONDON         SUNNY     47  42  83 CALM      30.16R
SOMERSET       PTSUNNY   45  45 100 CALM      30.17R
MIDDLESBORO    SUNNY     42  41  95 CALM      30.20R
MONTICELLO     SUNNY     49  47  93 CALM      30.18R
$$




USA.gov is the U.S. government's official web portal to all federal, state and local government web resources and services.